Home   Weather   Ettlingen   Past weeks

Flag for Germany Past Weather in Ettlingen, Baden-Württemberg, Germany — Yesterday and Last 2 Weeks

Now
57 °F

Clear.


Feels Like: 55 °F
Forecast: 42 / 49 °F
Wind: 12 mph from South

Location: Karlsruhe - Baden Wurttemberg

Current Time: Feb 27, 2017 at 7:43:34 pm

Latest Report: Feb 27, 2017 at 6:50 pm


Visibility: 10 mi

Pressure: 29.47 "Hg

Humidity: 51%

Dew Point: 39 °F

Location of EttlingenLocation

Past Weather in Ettlingen — Graph

°F

Ettlingen Temperature Yesterday

Maximum temperature yesterday: 55 °F (at 2:20 pm)
Minimum temperature yesterday: 36 °F (at 4:50 am)
Average temperature yesterday: 47 °F

High & Low Weather Summary for the Past Weeks

 TemperatureHumidityPressure
High66 °F (Feb 23, 2:20 pm)100% (Feb 14, 4:50 am)30.60 "Hg (Feb 14, 4:50 am)
Low23 °F (Feb 14, 6:50 am)22% (Feb 23, 2:50 pm)29.50 "Hg (Feb 27, 5:50 pm)
Average44 °F78%30.16 "Hg
* Reported Feb 12 6:20 pm — Feb 27 6:20 pm, Ettlingen, Weather by CustomWeather, © 2017

Note: Actual official high and low records may vary slightly from our data, if they occured in-between our weather recording intervals... More about our weather records

Advertising

Ettlingen Weather History for the Previous 24 Hours

Scroll right to see more
 ConditionsComfort  
Time TempWeatherWind HumidityBarometerVisibility
6:20 pm
Mon, Feb 27
55 °FClear.8 mph51%29.50 "Hg10 mi
5:50 pm57 °FPassing clouds.9 mph48%29.50 "HgN/A
5:20 pm59 °FSunny.12 mph42%29.53 "Hg10 mi
4:50 pm61 °FPassing clouds.16 mph39%29.56 "HgN/A
4:20 pm61 °FSunny.22 mph42%29.53 "Hg10 mi
3:50 pm63 °FSunny.18 mph39%29.56 "Hg10 mi
3:20 pm61 °FSunny.17 mph45%29.56 "Hg10 mi
2:50 pm61 °FSunny.17 mph45%29.59 "Hg10 mi
2:20 pm61 °FSunny.18 mph45%29.62 "Hg10 mi
1:50 pm59 °FSunny.16 mph48%29.65 "Hg10 mi
1:20 pm59 °FPassing clouds.14 mph48%29.68 "HgN/A
12:50 pm57 °FSunny.15 mph51%29.71 "Hg10 mi
12:20 pm57 °FPassing clouds.13 mph51%29.71 "HgN/A
11:50 am57 °FPassing clouds.14 mph51%29.74 "HgN/A
11:20 am55 °FPassing clouds.15 mph51%29.77 "HgN/A
10:50 am55 °FPassing clouds.17 mph51%29.77 "HgN/A
10:20 am54 °FPassing clouds.16 mph51%29.77 "HgN/A
9:50 am52 °FPassing clouds.14 mph54%29.80 "HgN/A
9:20 am52 °FScattered clouds.13 mph54%29.80 "HgN/A
8:50 am50 °FScattered clouds.9 mph62%29.83 "HgN/A
8:20 am46 °FPartly sunny.7 mph66%29.83 "HgN/A
7:50 am45 °FPartly sunny.8 mph71%29.83 "HgN/A
7:20 am48 °FPartly sunny.12 mph58%29.83 "HgN/A
6:50 am48 °FPassing clouds.13 mph58%29.83 "HgN/A
6:20 am46 °FPassing clouds.12 mph62%29.86 "HgN/A
5:50 am46 °FPassing clouds.9 mph62%29.86 "HgN/A
5:20 am46 °FPassing clouds.12 mph62%29.86 "HgN/A
4:50 am45 °FPassing clouds.9 mph66%29.86 "HgN/A
4:20 am45 °FPassing clouds.8 mph66%29.89 "HgN/A
11:50 pm
Sun, Feb 26
48 °FPassing clouds.8 mph58%29.95 "HgN/A
11:20 pm50 °FPassing clouds.9 mph54%29.95 "HgN/A
10:50 pm50 °FPassing clouds.9 mph54%29.95 "HgN/A
10:20 pm50 °FPassing clouds.9 mph54%29.95 "HgN/A
9:50 pm50 °FPassing clouds.12 mph54%29.95 "HgN/A
9:20 pm50 °FPassing clouds.10 mph54%29.98 "HgN/A
8:50 pm50 °FPassing clouds.12 mph54%29.98 "HgN/A
8:20 pm48 °FClear.10 mph58%29.98 "Hg10 mi
7:50 pm43 °FClear.8 mph66%29.98 "Hg10 mi
7:20 pm46 °FClear.7 mph62%29.98 "Hg10 mi
Weather by CustomWeather, © 2017

See weather overviewHow to use our weather pages